[[{"header":{"parameterUnit":"m.s-1","parameterCategory":1,"la1":30.2991,"la2":30.254,"lo1":-89.0895,"lo2":-89.0444,"dy":0.0017,"dx":0.0017,"nx":28,"ny":28,"refTime":"2025-02-04T09:00:00:Z","depth":0,"parameterNumber":2,"parameterNumberName":"U-component_of_WINDS"},"data":[0,0,0,0,0,0,0,0,0,0,0,0,0,0,0,0,0,0,0,0,0,0,0,0,0,0,0,0,0,0,0,0,0,0,0,0,0,0,0,0,0,0,0,0,0,0,0,0,0,0,0,0,0,0,0,0,0,0,-0.7564,-0.7564,0,-0.7539,-0.7539,-0.7539,-0.749,-0.7489,-0.7488,-0.7487,-0.7463,-0.7463,-0.7463,0,0,0,0,0,0,0,0,0,0,0,0,0,-0.757,-0.757,-0.7564,-0.7564,-0.7563,-0.7539,-0.7539,-0.7539,-0.749,-0.7489,-0.7487,-0.7486,-0.7462,-0.7463,-0.7463,0,0,0,0,0,0,0,0,0,0,0,0,0,-0.7559,-0.757,-0.7564,-0.7536,-0.7533,-0.7539,-0.7539,-0.7539,-0.749,-0.7488,-0.7487,-0.7486,-0.7462,-0.7463,-0.7463,-0.7495,0,0,-0.7464,-0.7464,0,0,0,0,0,0,0,0,-0.7559,-0.7559,-0.7541,-0.7538,-0.7535,-0.7516,-0.7532,-0.7524,-0.749,-0.7506,-0.7487,-0.7485,-0.7482,-0.748,-0.7479,-0.7494,-0.7493,-0.7464,-0.7465,-0.7465,-0.7465,0,0,0,0,0,0,0,-0.756,-0.7559,-0.7554,-0.754,-0.7537,-0.7525,-0.7522,-0.753,-0.7503,-0.7505,-0.7501,-0.7499,-0.748,-0.7479,-0.7478,-0.7492,-0.7464,-0.7465,-0.7465,-0.7465,-0.7532,-0.7533,0,0,0,0,0,0,-0.7565,-0.756,-0.7555,-0.7554,-0.7544,-0.7526,-0.7523,-0.7524,-0.7502,-0.7498,-0.75,-0.7497,-0.7479,-0.7478,-0.7477,-0.7512,-0.7465,-0.7465,-0.7465,-0.753,-0.7532,-0.7534,0,0,0,0,0,0,-0.7565,-0.7565,-0.7556,-0.7556,-0.7554,-0.7528,-0.7529,-0.7524,-0.7523,-0.7499,-0.7494,-0.7504,-0.7477,-0.7476,-0.7491,-0.7511,-0.7465,-0.7466,-0.7528,-0.7531,-0.7533,-0.7584,0,0,0,0,0,0,-0.7566,-0.7565,-0.7577,-0.7557,-0.7554,-0.757,-0.753,-0.7524,-0.7523,-0.7519,-0.7501,-0.7497,-0.7476,-0.749,-0.7491,-0.751,-0.7466,-0.7526,-0.7529,-0.7532,-0.758,-0.7587,-0.7594,0,0,0,0,0,-0.7566,-0.7593,-0.7578,-0.7577,-0.7568,-0.7571,-0.757,-0.7545,-0.7525,-0.7537,-0.7521,-0.7497,-0.7509,-0.7492,-0.7493,-0.7513,-0.7525,-0.7528,-0.7532,-0.7577,-0.7586,-0.7594,0,0,0,0,0,0,-0.7617,-0.7589,-0.7573,-0.7593,-0.7585,-0.7563,-0.7577,-0.7556,-0.7553,-0.7549,-0.7519,-0.7515,-0.7534,-0.7524,-0.7507,-0.7542,-0.7513,-0.7517,-0.7547,-0.7555,-0.7562,-0.7564,-0.7466,0,0,0,0,0,-0.763,-0.7635,-0.7611,-0.7632,-0.7628,-0.7603,-0.7604,-0.7586,-0.7576,-0.7572,-0.7558,-0.755,-0.7551,-0.7553,-0.7553,-0.7579,-0.7574,-0.7593,-0.7599,-0.7605,-0.7609,-0.7621,-0.7629,-0.7545,-0.7545,-0.7545,0,0,-0.7658,-0.7644,-0.7649,-0.7641,-0.7633,-0.7638,-0.7601,-0.7608,-0.7612,-0.7573,-0.7586,-0.7575,-0.7564,-0.7584,-0.7592,-0.7577,-0.7631,-0.7609,-0.7614,-0.7615,-0.7625,-0.7633,-0.7641,-0.7547,-0.7547,-0.7546,0,0,-0.7712,-0.7702,-0.7717,-0.771,-0.7697,-0.768,-0.7684,-0.7665,-0.7656,-0.7668,-0.7639,-0.7643,-0.7647,-0.764,-0.7637,-0.7688,-0.7666,-0.7689,-0.7725,-0.7737,-0.7744,-0.775,-0.7768,-0.7774,-0.7693,-0.7693,-0.7693,0,-0.7748,-0.7755,-0.7728,-0.7738,-0.7735,-0.77,-0.7716,-0.771,-0.7698,-0.7697,-0.768,-0.7684,-0.7674,-0.7691,-0.7704,-0.7703,-0.7706,-0.7691,-0.7745,-0.7751,-0.7756,-0.7772,-0.7779,-0.7696,-0.7695,-0.7695,-0.7695,0,-0.7801,-0.7806,-0.7821,-0.7809,-0.7809,-0.7822,-0.7797,-0.7799,-0.7781,-0.7766,-0.7779,-0.7766,-0.7762,-0.7765,-0.7748,-0.7781,-0.7771,-0.775,-0.7721,-0.7767,-0.7782,-0.7788,-0.77,-0.7699,-0.7698,-0.7697,0,0,-0.7886,-0.7859,-0.7865,-0.7859,-0.7843,-0.7846,-0.7858,-0.7854,-0.7857,-0.785,-0.7858,-0.7862,-0.7842,-0.7839,-0.782,-0.7832,-0.7873,-0.7809,-0.7808,-0.7821,-0.7907,-0.7923,-0.7931,-0.7858,-0.7859,-0.786,-0.7908,0,-0.7935,-0.7952,-0.7928,-0.7951,-0.7956,-0.7922,-0.7932,-0.7923,-0.7909,-0.7912,-0.7897,-0.79,-0.7874,-0.7871,-0.7881,-0.7866,-0.7889,-0.7862,-0.7866,-0.7866,-0.7869,-0.7939,-0.7956,-0.8002,-0.7914,-0.7915,-0.7916,0,-0.7996,-0.7991,-0.8014,-0.7996,-0.7997,-0.8006,-0.8,-0.8003,-0.7992,-0.7981,-0.7978,-0.7956,-0.7965,-0.7937,-0.795,-0.7932,-0.7932,-0.7925,-0.7926,-0.7925,-0.7893,-0.794,-0.8016,-0.8023,-0.7925,-0.7924,-0.7923,0,-0.8055,-0.8055,-0.8068,-0.8064,-0.8043,-0.805,-0.8042,-0.803,-0.8029,-0.8025,-0.8024,-0.8021,-0.8019,-0.8017,-0.7995,-0.7976,-0.8011,-0.798,-0.8002,-0.8003,-0.8011,-0.8011,-0.8088,-0.8012,-0.8012,-0.8012,-0.8011,0,-0.8113,-0.8128,-0.8094,-0.8103,-0.8119,-0.8091,-0.8108,-0.8096,-0.8086,-0.8091,-0.8062,-0.8068,-0.8039,-0.8042,-0.8024,-0.8038,-0.8037,-0.8029,-0.8024,-0.8031,-0.8032,-0.8031,-0.8027,-0.8013,-0.8013,-0.8013,-0.8012,0,-0.8181,-0.8159,-0.8172,-0.8151,-0.8146,-0.8159,-0.8141,-0.8148,-0.8132,-0.814,-0.814,-0.8116,-0.8118,-0.8096,-0.8093,-0.8082,-0.8103,-0.8093,-0.8106,-0.8103,-0.8126,-0.8124,-0.8205,-0.8214,-0.8132,-0.8133,-0.8134,0,-0.8219,-0.823,-0.821,-0.8212,-0.8205,-0.8208,-0.8206,-0.818,-0.818,-0.8168,-0.8177,-0.8176,-0.8174,-0.8179,-0.8161,-0.8159,-0.8149,-0.8177,-0.8148,-0.8155,-0.8149,-0.8148,-0.8149,-0.8183,-0.8184,-0.8185,-0.8186,0,-0.8289,-0.8278,-0.8277,-0.8273,-0.8272,-0.8268,-0.8261,-0.8264,-0.8236,-0.8237,-0.8238,-0.8237,-0.8234,-0.8234,-0.8229,-0.822,-0.8198,-0.8195,-0.82,-0.8207,-0.8214,-0.821,-0.8122,-0.8193,-0.8192,-0.8192,-0.8191,-0.8191,-0.8343,-0.8351,-0.8338,-0.8339,-0.8331,-0.8326,-0.8331,-0.8316,-0.8317,-0.8312,-0.8297,-0.8301,-0.8289,-0.828,-0.8273,-0.8276,-0.8262,-0.827,-0.8271,-0.8273,-0.8278,-0.8214,-0.8275,-0.8275,-0.8275,-0.8275,-0.8274,0,-0.8411,-0.8401,-0.8402,-0.8394,-0.8394,-0.8373,-0.8365,-0.8366,-0.837,-0.8361,-0.836,-0.8361,-0.8361,-0.8344,-0.8341,-0.8347,-0.8337,-0.8347,-0.8346,-0.8344,-0.829,-0.8286,-0.8355,-0.8355,-0.8355,-0.8355,-0.8355,-0.8355,-0.8447,-0.8459,-0.8446,-0.8454,-0.8444,-0.8448,-0.8445,-0.844,-0.8432,-0.8435,-0.8434,-0.8423,-0.8411,-0.8407,-0.8406,-0.8401,-0.8401,-0.8415,-0.8406,-0.8356,-0.8348,-0.8341,-0.8337,-0.8415,-0.8415,-0.846,-0.846,-0.8461]},{"header":{"parameterUnit":"m.s-1","parameterCategory":1,"la1":30.2991,"la2":30.254,"lo1":-89.0895,"lo2":-89.0444,"dy":0.0017,"dx":0.0017,"nx":28,"ny":28,"refTime":"2025-02-04T09:00:00:Z","depth":0,"parameterNumber":3,"parameterNumberName":"V-component_of_WINDS"},"data":[0,0,0,0,0,0,0,0,0,0,0,0,0,0,0,0,0,0,0,0,0,0,0,0,0,0,0,0,0,0,0,0,0,0,0,0,0,0,0,0,0,0,0,0,0,0,0,0,0,0,0,0,0,0,0,0,0,0,0.3771,0.3771,0,0.3782,0.3782,0.3783,0.3797,0.3797,0.3797,0.3798,0.3808,0.3808,0.3808,0,0,0,0,0,0,0,0,0,0,0,0,0,0.3762,0.3762,0.3771,0.3771,0.3772,0.3782,0.3782,0.3783,0.3797,0.3797,0.3797,0.3798,0.3808,0.3808,0.3808,0,0,0,0,0,0,0,0,0,0,0,0,0,0.3769,0.3762,0.3771,0.378,0.3781,0.3782,0.3782,0.3783,0.3797,0.3797,0.3798,0.3798,0.3808,0.3808,0.3808,0.3801,0,0,0.3808,0.3808,0,0,0,0,0,0,0,0,0.3769,0.3769,0.3779,0.3779,0.378,0.3789,0.3783,0.3789,0.3797,0.3791,0.3798,0.3798,0.3801,0.3802,0.3803,0.3802,0.3802,0.3808,0.3808,0.3808,0.3808,0,0,0,0,0,0,0,0.3768,0.3769,0.3776,0.3779,0.378,0.3783,0.3785,0.3784,0.3794,0.3791,0.3792,0.3794,0.3802,0.3803,0.3803,0.3802,0.3808,0.3808,0.3808,0.3808,0.3797,0.3796,0,0,0,0,0,0,0.3766,0.3768,0.3775,0.3776,0.3775,0.3783,0.3785,0.3786,0.3794,0.3795,0.3793,0.3794,0.3803,0.3803,0.3804,0.3797,0.3808,0.3808,0.3808,0.3797,0.3797,0.3796,0,0,0,0,0,0,0.3766,0.3767,0.3775,0.3773,0.3774,0.3783,0.3784,0.3786,0.3787,0.3795,0.3797,0.3793,0.3803,0.3804,0.3802,0.3797,0.3808,0.3808,0.3798,0.3797,0.3797,0.3782,0,0,0,0,0,0,0.3766,0.3767,0.3764,0.3772,0.3774,0.3773,0.3784,0.3786,0.3787,0.3788,0.3795,0.3797,0.3803,0.3802,0.3802,0.3798,0.3808,0.3798,0.3797,0.3797,0.3783,0.3781,0.378,0,0,0,0,0,0.3766,0.3759,0.3764,0.3765,0.3771,0.3773,0.3773,0.3781,0.3787,0.3784,0.379,0.3796,0.3798,0.3801,0.3802,0.3797,0.3798,0.3798,0.3797,0.3784,0.3782,0.378,0,0,0,0,0,0,0.375,0.3761,0.3766,0.3762,0.3766,0.3775,0.3772,0.3779,0.3781,0.3782,0.3792,0.3793,0.379,0.3794,0.3798,0.3792,0.3799,0.3798,0.3789,0.3787,0.3786,0.3785,0.3809,0,0,0,0,0,0.3746,0.3747,0.3756,0.3752,0.3754,0.3763,0.3764,0.377,0.3774,0.3776,0.3781,0.3785,0.3787,0.3787,0.3789,0.3784,0.3786,0.3781,0.378,0.3778,0.3777,0.3775,0.3774,0.3794,0.3794,0.3794,0,0,0.3738,0.3744,0.3744,0.3749,0.3753,0.3753,0.3764,0.3764,0.3764,0.3776,0.3775,0.3779,0.3784,0.3781,0.378,0.3784,0.3772,0.3777,0.3776,0.3776,0.3774,0.3773,0.3771,0.3793,0.3793,0.3793,0,0,0.3724,0.3728,0.3726,0.373,0.3736,0.3742,0.3741,0.3749,0.3752,0.3752,0.3761,0.3761,0.3763,0.3767,0.3769,0.3757,0.3763,0.3757,0.3748,0.3746,0.3745,0.3743,0.3739,0.3738,0.3756,0.3756,0.3756,0,0.3713,0.3714,0.3723,0.3723,0.3725,0.3736,0.3734,0.3737,0.3743,0.3744,0.3749,0.3753,0.3757,0.3755,0.3752,0.3753,0.3753,0.3756,0.3744,0.3743,0.3742,0.3738,0.3736,0.3756,0.3756,0.3756,0.3756,0,0.37,0.3701,0.3698,0.3704,0.3706,0.3705,0.3714,0.3715,0.3721,0.3727,0.3726,0.3732,0.3735,0.3735,0.3741,0.3734,0.3737,0.3742,0.375,0.3739,0.3735,0.3734,0.3755,0.3755,0.3755,0.3755,0,0,0.3675,0.3688,0.3687,0.369,0.3698,0.3699,0.3698,0.3702,0.3702,0.3707,0.3706,0.3708,0.3714,0.3717,0.3723,0.3721,0.3712,0.3727,0.3728,0.3724,0.3705,0.3701,0.3699,0.3716,0.3716,0.3716,0.3705,0,0.3662,0.3662,0.3671,0.3668,0.3669,0.368,0.3679,0.3684,0.369,0.3691,0.3698,0.3699,0.3707,0.3708,0.3707,0.3713,0.3708,0.3714,0.3716,0.3716,0.3714,0.3697,0.3692,0.3681,0.3704,0.3703,0.3703,0,0.3646,0.3651,0.3648,0.3657,0.3658,0.3657,0.3662,0.3663,0.3669,0.3673,0.3677,0.3684,0.3684,0.3692,0.3692,0.3696,0.3697,0.37,0.37,0.37,0.3708,0.3696,0.3678,0.3676,0.3701,0.3701,0.3701,0,0.3629,0.3633,0.3633,0.3635,0.3646,0.3645,0.3649,0.3656,0.3658,0.3662,0.3663,0.3667,0.3669,0.3672,0.3681,0.3685,0.368,0.3688,0.3683,0.3683,0.3681,0.3681,0.3662,0.3682,0.3682,0.3682,0.3682,0,0.3613,0.3611,0.3625,0.3624,0.3622,0.3633,0.3631,0.3636,0.3642,0.3643,0.3653,0.3653,0.3665,0.3666,0.3673,0.3672,0.3673,0.3676,0.3678,0.3675,0.3675,0.3676,0.3677,0.3682,0.3682,0.3682,0.3682,0,0.3592,0.3601,0.3601,0.3612,0.3614,0.3613,0.3621,0.3621,0.3628,0.3629,0.363,0.364,0.3643,0.3652,0.3656,0.3661,0.3658,0.3661,0.3656,0.3657,0.3651,0.3652,0.3632,0.363,0.3652,0.3652,0.3652,0,0.3581,0.358,0.3591,0.3592,0.3596,0.3598,0.3601,0.3611,0.3614,0.3621,0.362,0.3624,0.3627,0.3631,0.3639,0.3642,0.3646,0.3639,0.3646,0.3644,0.3646,0.3646,0.3646,0.3637,0.3637,0.3636,0.3636,0,0.3561,0.3566,0.3569,0.3574,0.3577,0.3581,0.3586,0.3587,0.3599,0.3601,0.3604,0.3607,0.3612,0.3616,0.3621,0.3625,0.3633,0.3634,0.3633,0.363,0.3627,0.3629,0.3651,0.3634,0.3634,0.3635,0.3635,0.3635,0.3545,0.3544,0.3552,0.3556,0.3561,0.3565,0.3566,0.3573,0.3576,0.3582,0.3588,0.3591,0.3597,0.3605,0.3609,0.3611,0.3615,0.3614,0.3614,0.3613,0.3612,0.3627,0.3612,0.3612,0.3613,0.3613,0.3613,0,0.3525,0.3531,0.3534,0.3541,0.3544,0.3552,0.3558,0.356,0.3562,0.3568,0.3571,0.3575,0.3579,0.3588,0.3592,0.3592,0.3596,0.3593,0.3593,0.3594,0.3608,0.3608,0.359,0.359,0.359,0.359,0.359,0.359,0.3515,0.3515,0.3521,0.3524,0.353,0.3533,0.3536,0.354,0.3545,0.3549,0.3553,0.3559,0.3566,0.3571,0.3575,0.3577,0.3578,0.3574,0.3578,0.3591,0.3593,0.3595,0.3595,0.3575,0.3575,0.3564,0.3564,0.3564]}]]